Wind_Speed
81 84 85 86 88 88 89 90 92 93 94 96 97 98 98 98 99 99 100 101 102 102 103 102 102 100 98
89 92 92 93 95 97 99 99 100 101 103 104 106 107 106 106 106 107 107 109 110 108 108 105 102 100 97
98 97 98 101 102 104 106 107 107 108 109 109 111 112 113 113 114 114 113 110 110 107 102 99 95 93 93
108 109 108 110 112 113 113 113 113 115 115 114 116 118 118 116 113 111 110 104 100 96 94 95 93 91 91
115 113 113 114 115 116 114 115 117 117 117 119 117 113 111 110 105 101 99 97 97 95 94 93 92 92 91
108 109 110 110 110 107 106 105 105 109 110 105 106 102 104 102 100 98 94 93 93 94 93 92 92 92 91
95 98 97 101 102 103 100 97 95 97 100 96 101 96 99 97 96 93 90 88 88 87 87 88 88 87 88
90 90 90 92 93 92 91 91 89 90 95 88 94 92 93 91 90 88 87 86 86 86 85 86 86 86 87
89 87 87 88 88 83 83 81 80 83 89 83 90 89 91 92 93 92 92 90 90 89 88 87 87 87 86
86 85 85 85 86 85 82 81 81 81 89 84 88 90 88 90 92 92 92 91 90 90 89 88 88 87 87
81 83 83 83 84 84 83 80 80 81 86 84 86 88 85 86 90 87 87 87 86 86 85 84 82 83 82
79 80 82 84 84 83 83 82 80 79 80 78 78 78 76 77 78 77 77 77 76 76 76 76 75 75 75
76 79 80 80 80 79 77 76 75 73 71 69 67 66 66 66 66 66 65 64 63 64 64 64 66 67 68
72 73 72 70 68 67 68 65 64 62 60 59 57 56 56 55 55 54 54 52 52 53 53 54 54 55 56
63 63 62 61 59 57 55 53 52 51 50 49 48 47 47 46 45 45 44 42 42 42 42 43 44 46 47
53 52 51 50 48 47 45 44 42 41 40 39 39 38 37 37 37 36 34 33 32 33 34 36 38 40 42
43 42 41 39 37 36 35 34 34 33 32 31 30 29 28 28 27 26 25 26 27 29 31 33 34 36 38
Wind_Direction
277 277 276 276 277 277 276 276 276 276 275 275 275 274 273 273 274 274 274 274 274 274 275 275 274 274 273
276 276 275 275 275 275 276 276 277 276 276 276 276 276 275 275 274 273 273 273 274 275 275 274 272 272 270
274 275 275 275 276 276 276 277 276 276 275 275 275 276 276 276 275 273 273 273 273 272 272 270 269 268 267
276 275 274 273 274 275 276 275 275 275 274 275 276 275 274 274 274 273 272 272 271 270 269 269 267 265 265
277 277 276 276 275 275 274 274 275 275 273 274 274 274 273 272 271 270 271 271 269 268 266 266 265 264 263
279 277 277 277 276 274 274 274 273 274 274 274 273 272 272 271 270 270 269 268 267 267 266 265 263 261 260
279 279 279 278 277 276 275 274 274 274 273 273 272 272 271 272 272 271 269 267 265 263 262 262 261 259 259
279 277 276 275 275 275 275 275 275 275 274 273 274 273 272 272 270 269 267 266 264 263 262 261 260 259 259
284 283 282 280 279 278 277 276 275 275 274 273 271 269 270 270 269 268 267 266 265 263 262 260 259 258 258
284 283 282 281 281 280 278 277 275 275 274 272 272 271 268 268 266 266 265 264 263 262 261 259 259 258 258
286 284 284 283 282 281 279 277 276 275 273 272 271 269 268 266 266 265 263 262 262 261 260 258 257 255 255
285 284 283 282 282 281 281 280 278 276 275 273 271 270 269 267 266 264 263 261 259 258 256 255 254 253 252
286 284 282 280 280 281 281 280 280 279 277 276 273 271 268 266 266 264 262 259 257 255 254 252 251 249 249
284 281 282 282 281 281 280 280 279 279 278 276 274 271 269 267 265 263 260 258 253 250 248 248 247 245 244
284 285 284 284 283 283 282 281 279 278 276 274 272 270 269 267 263 260 257 254 249 245 243 242 240 238 236
286 284 284 284 283 283 282 280 278 275 273 271 269 268 267 263 260 256 252 246 240 237 235 234 231 230 229
287 286 285 284 283 283 281 279 278 275 272 269 267 264 261 258 255 250 243 232 228 227 226 226 226 226 226
Height
10448 10441 10438 10435 10432 10430 10428 10428 10426 10423 10421 10420 10419 10419 10420 10421 10421 10420 10419 10418 10418 10420 10421 10422 10422 10425 10427
10425 10415 10414 10409 10406 10402 10398 10398 10399 10394 10392 10390 10386 10383 10384 10386 10388 10389 10388 10387 10387 10386 10389 10390 10391 10392 10395
10394 10390 10385 10379 10374 10370 10367 10366 10364 10362 10359 10356 10352 10351 10350 10348 10349 10349 10352 10353 10353 10353 10353 10356 10358 10361 10363
10356 10356 10354 10347 10341 10336 10333 10330 10329 10325 10323 10320 10318 10314 10312 10310 10310 10309 10312 10316 10319 10320 10322 10323 10325 10329 10332
10318 10318 10314 10311 10307 10303 10303 10298 10293 10286 10283 10283 10279 10277 10272 10270 10273 10275 10279 10282 10283 10285 10289 10292 10294 10296 10301
10282 10278 10272 10268 10264 10263 10261 10260 10264 10251 10246 10249 10239 10241 10235 10234 10237 10242 10248 10250 10251 10251 10253 10257 10261 10265 10268
10249 10242 10238 10227 10226 10224 10221 10223 10225 10221 10212 10217 10202 10210 10198 10202 10202 10207 10212 10213 10215 10219 10222 10223 10227 10232 10236
10213 10211 10203 10196 10190 10189 10190 10186 10190 10184 10172 10184 10170 10172 10166 10168 10167 10171 10176 10180 10183 10186 10189 10193 10198 10202 10206
10174 10170 10166 10159 10154 10159 10157 10158 10159 10154 10139 10149 10138 10141 10138 10136 10133 10137 10141 10146 10149 10153 10157 10162 10167 10171 10176
10144 10140 10134 10130 10123 10121 10125 10125 10123 10125 10106 10113 10107 10102 10108 10105 10102 10105 10108 10112 10116 10120 10124 10130 10135 10142 10146
10118 10109 10102 10097 10091 10087 10086 10089 10088 10088 10077 10080 10075 10071 10073 10074 10068 10073 10077 10080 10083 10087 10092 10097 10104 10110 10116
10088 10081 10075 10067 10061 10056 10052 10050 10050 10051 10046 10046 10044 10040 10041 10040 10039 10043 10045 10049 10054 10058 10062 10068 10075 10081 10088
10057 10050 10043 10038 10034 10030 10025 10021 10018 10017 10016 10014 10014 10013 10013 10013 10012 10015 10019 10023 10028 10032 10038 10043 10050 10056 10063
10027 10019 10015 10012 10008 10005 9999 9997 9994 9992 9991 9990 9989 9988 9989 9990 9992 9994 9997 10001 10006 10011 10017 10023 10029 10036 10043
10001 9996 9991 9987 9984 9982 9979 9976 9974 9972 9971 9970 9970 9969 9970 9971 9974 9976 9980 9984 9989 9994 10001 10007 10014 10020 10027
9981 9977 9973 9969 9966 9964 9962 9959 9958 9956 9955 9954 9954 9955 9956 9957 9960 9963 9968 9972 9977 9982 9988 9994 10001 10008 10014
9962 9960 9957 9955 9953 9951 9948 9946 9944 9943 9942 9942 9943 9945 9946 9948 9951 9954 9959 9963 9968 9973 9978 9985 9992 9999 10005